Concordia, KS

1:06 AM CDT on April 23, 2017 (GMT -0500)
Blosser Municipal

Weather History for KCNK - May, 2013

Change the Weather History Date:

Tuesday, May 7, 2013

  Actual Average Record
Temperature  
Mean Temperature 60 °F 60 °F  
Max Temperature 72 °F 71 °F 99 °F (2014)
Min Temperature 48 °F 49 °F 31 °F (1890)
Degree Days  
Heating Degree Days 5 6  
Month to date heating degree days 110 48  
Since 1 July heating degree days 5457 5312  
Cooling Degree Days 0 1  
Month to date cooling degree days 0 7  
Year to date cooling degree days 10 24  
Growing Degree Days 10 (Base 50)    
Moisture  
Dew Point 51 °F    
Average Humidity 69    
Maximum Humidity 89    
Minimum Humidity 49    
Precipitation  
Precipitation 0.26 in 0.12 in 1.86 in (1995)
Month to date precipitation 1.92 0.81  
Year to date precipitation 7.77 6.64  
Snow  
Snow 0.00 in 0.00 in T in (1967)
Month to date snowfall T 0.0  
Year to date snowfall 20.3 13.7  
Since 1 July snowfall 28.8 20.2  
Snow Depth 0.00 in    
Sea Level Pressure  
Sea Level Pressure 30.00 in    
Wind  
Wind Speed 8 mph (SSE)    
Max Wind Speed 21 mph    
Max Gust Speed 26 mph    
Visibility 9 miles    
Events Rain , Thunderstorm    
T = Trace of Precipitation, MM = Missing Value Source: NWS Daily Summary

Daily Weather History Graph

Daily Weather History Graph

Search for Another Location

Airport or City:

Trip Planner

Search our weather history database for the weather conditions in past years. The results will help you decide how hot, cold, wet, or windy it might be!

Date:

Astronomy

May. 07, 2013 Rise Set
Actual Time 6:24 AM CDT 8:30 PM CDT
Civil Twilight 5:54 AM CDT 9:00 PM CDT
Nautical Twilight 5:18 AM CDT 9:36 PM CDT
Astronomical Twilight 4:38 AM CDT 10:16 PM CDT
Moon 4:58 AM CDT (5/7) 6:32 PM CDT (5/7)
Length of Visible Light 15h 05m
Length of Day
14h 06m
Waning Crescent, 5% of the Moon is Illuminated
May 7
Waning Crescent
May 9
New
May 17
First Quarter
May 24
Full
May 31
Last Quarter

Hourly Weather History & Observations

Time (CDT) Temp. Dew Point Humidity Pressure Visibility Wind Dir Wind Speed Gust Speed Precip Events Conditions
12:55 AM 51.1 °F - N/A% 30.05 in 10.0 mi South 3.5 mph - N/A   Clear
1:55 AM 51.1 °F - N/A% 30.05 in 10.0 mi SSE 4.6 mph - N/A   Clear
2:55 AM 48.9 °F - N/A% 30.05 in 10.0 mi Calm Calm - N/A   Clear
3:55 AM 48.9 °F - N/A% 30.05 in 10.0 mi South 6.9 mph - N/A   Mostly Cloudy
4:55 AM 48.2 °F - N/A% 30.05 in 8.0 mi Calm Calm - N/A   Overcast
5:55 AM 48.0 °F - N/A% 30.04 in 8.0 mi East 3.5 mph - N/A   Overcast
6:55 AM 51.1 °F - N/A% 30.05 in 7.0 mi Calm Calm - N/A   Overcast
7:55 AM 52.0 °F 48.9 °F 89% 30.06 in 6.0 mi Calm Calm - N/A   Overcast
8:55 AM 59.0 °F 51.1 °F 75% 30.05 in 10.0 mi Variable 3.5 mph - N/A   Overcast
9:55 AM 64.0 °F 52.0 °F 65% 30.05 in 10.0 mi South 6.9 mph - N/A   Scattered Clouds
10:55 AM 64.9 °F 53.1 °F 65% 30.05 in 10.0 mi South 10.4 mph - N/A   Partly Cloudy
11:55 AM 66.0 °F 52.0 °F 60% 30.04 in 10.0 mi SSW 5.8 mph - N/A   Partly Cloudy
12:55 PM 68.0 °F 54.0 °F 61% 30.03 in 10.0 mi SSW 12.7 mph - N/A   Overcast
1:55 PM 71.1 °F 51.1 °F 49% 30.00 in 10.0 mi SSE 13.8 mph 21.9 mph N/A   Mostly Cloudy
2:55 PM 72.0 °F 52.0 °F 49% 29.98 in 10.0 mi South 12.7 mph - N/A   Mostly Cloudy
3:55 PM 69.1 °F 52.0 °F 54% 29.96 in 10.0 mi SSE 6.9 mph - 0.00 in Rain Light Rain
4:55 PM 71.1 °F 53.1 °F 53% 29.94 in 10.0 mi SE 10.4 mph - 0.00 in   Overcast
5:55 PM 69.1 °F 50.0 °F 51% 29.93 in 10.0 mi SSE 13.8 mph - N/A   Overcast
6:55 PM 66.9 °F 52.0 °F 59% 29.91 in 10.0 mi SSE 13.8 mph - N/A   Partly Cloudy
7:55 PM 64.9 °F 52.0 °F 63% 29.91 in 10.0 mi SSE 9.2 mph - N/A   Clear
8:55 PM 61.0 °F 51.1 °F 70% 29.91 in 10.0 mi SSE 9.2 mph - N/A   Clear
9:55 PM 62.1 °F 52.0 °F 70% 29.90 in 10.0 mi SE 9.2 mph - N/A   Partly Cloudy
10:32 PM 62.6 °F 53.6 °F 72% 29.95 in 7.0 mi SSE 8.1 mph - 0.00 in Rain , Thunderstorm Rain
10:55 PM 61.0 °F 54.0 °F 78% 29.95 in 3.0 mi SE 5.8 mph - 0.11 in Rain , Thunderstorm Heavy Thunderstorms and Rain
11:35 PM 60.8 °F 53.6 °F 77% 29.95 in 10.0 mi ESE 5.8 mph - 0.13 in   Overcast
11:55 PM 59.0 °F 55.0 °F 87% 29.95 in 10.0 mi SE 6.9 mph - 0.13 in   Overcast